SCP
0 0 0 0 0 0 0 0 0 0 0 0 0 0 1 1 1 0 0 1 0 0 0 0 0 0 0 0 0 0 0 0
0 0 0 0 0 0 0 0 0 0 0 0 0 0 0 0 1 1 0 1 1 1 0 0 0 0 0 0 0 0 0 0
0 0 0 0 0 0 0 0 0 0 0 0 0 0 0 0 0 0 1 0 1 1 1 0 0 0 0 0 0 0 0 0
0 0 0 0 0 0 0 0 0 0 0 0 0 0 0 0 0 0 0 1 1 1 1 1 0 0 0 0 0 0 0 0
0 0 0 0 0 0 0 -0 -0 0 0 0 0 -0 0 0 0 0 0 0 0 0 0 1 1 1 0 0 0 0 0 0
0 0 0 0 0 -0 -0 -0 -0 -0 -0 -0 -0 0 -0 -0 -0 -0 -0 0 0 0 0 0 1 1 1 0 0 0 0 0
0 0 0 0 0 0 0 0 -0 -0 0 0 0 0 0 0 -0 -0 0 -0 0 0 0 0 0 0 1 2 1 1 1 0
0 0 0 0 0 0 0 0 0 0 -0 -0 0 0 -0 0 0 -0 -0 -0 0 0 0 -0 0 0 0 1 2 1 1 0
0 0 0 0 0 0 0 0 0 0 0 0 0 0 0 -0 -0 0 -0 -0 -0 0 0 0 -0 0 0 0 1 2 2 1
0 0 0 0 0 0 0 -0 0 0 0 0 0 0 0 0 0 -0 0 0 -0 0 0 0 0 0 -0 0 0 0 1 2
0 0 0 0 0 0 0 0 0 0 0 0 0 0 0 0 0 0 0 0 0 -0 -0 0 0 0 0 0 -0 0 0 1
0 0 0 0 0 0 0 0 0 0 0 0 0 0 0 0 0 0 0 0 -0 0 0 0 0 0 0 0 0 -0 0 0
0 0 0 0 0 0 0 0 0 0 0 0 0 0 0 0 0 0 0 0 0 0 0 0 0 0 0 0 0 0 0 0
0 0 0 0 0 0 0 0 0 0 0 0 0 0 0 0 0 0 0 0 0 0 0 0 -0 -0 0 0 0 0 0 0
0 0 0 0 0 0 0 0 0 0 0 0 0 0 0 0 0 0 0 0 0 0 0 0 -0 -0 0 -0 0 0 0 0
0 0 0 0 0 0 0 0 0 0 0 0 0 0 0 0 0 0 0 0 0 0 0 -0 0 0 -0 0 -0 -0 0 0
0 0 0 0 0 0 0 0 0 0 0 0 0 0 0 0 0 0 0 0 0 0 0 0 0 0 0 0 -0 -0 0 0
0 0 0 0 0 0 0 0 0 0 0 0 0 0 0 0 0 0 0 0 0 0 0 0 0 0 0 0 0 -0 -0 -0
0 0 0 0 0 0 0 0 0 0 0 0 0 0 0 0 0 0 0 0 0 0 0 0 0 0 0 0 0 0 -0 -0
Wind_Speed_500mb
48 49 55 59 48 34 21 12 7 9 12 14 31 40 46 48 49 48 51 55 62 63 63 62 59 61 64 67 61 60 61 62
47 50 52 62 62 58 57 36 23 7 14 26 37 28 36 45 52 53 54 53 61 64 68 65 69 68 68 67 68 70 69 62
42 48 53 57 64 62 67 62 58 39 24 26 25 29 39 41 45 50 62 57 58 60 75 79 73 79 77 72 69 71 73 69
37 43 45 46 49 53 55 58 62 62 51 40 33 37 32 35 47 52 44 61 66 62 72 79 81 74 79 84 86 83 78 74
31 35 41 42 43 45 41 45 51 54 56 57 59 50 39 41 46 45 41 43 44 67 62 78 87 82 82 83 82 91 92 92
29 32 34 36 38 40 45 44 45 51 53 50 46 49 54 55 55 53 61 49 42 37 52 72 85 90 91 88 83 85 90 94
27 29 31 33 35 40 42 40 44 47 46 51 52 48 48 53 62 59 50 62 55 48 55 57 62 76 89 90 92 92 92 93
24 26 29 32 35 40 39 42 43 49 50 47 46 51 51 49 50 57 67 65 55 57 60 59 52 57 67 90 88 95 98 98
22 25 27 29 32 38 42 45 46 48 49 51 50 46 48 54 52 47 46 58 65 67 69 59 60 60 55 72 87 93 98 103
16 20 23 26 30 36 41 40 42 49 54 51 53 55 55 52 51 54 53 45 53 64 61 68 65 61 77 55 77 81 92 97
12 15 19 22 28 32 36 39 40 42 50 51 58 56 56 56 58 55 57 59 48 56 56 59 63 68 55 51 68 77 88 83
11 14 18 21 26 31 35 36 39 42 45 47 51 55 62 64 62 62 64 61 65 59 57 58 58 62 68 68 66 59 52 58
8 11 16 22 27 31 34 35 36 39 40 45 50 53 61 64 66 70 70 66 66 63 68 65 62 60 63 67 65 65 62 72
6 11 17 22 27 31 32 33 36 40 43 45 47 53 60 66 71 71 74 78 76 68 68 71 74 73 67 74 84 76 67 68
5 11 16 22 25 28 30 33 37 40 41 46 48 55 59 61 65 74 76 77 80 82 81 73 75 72 69 70 74 85 76 75
6 12 18 21 24 27 30 32 37 40 42 46 47 56 58 64 70 74 74 76 82 81 79 77 84 73 69 66 79 88 82 88
6 12 16 19 23 26 28 34 37 40 42 45 49 54 59 63 68 74 78 79 76 78 72 77 81 74 75 75 76 83 91 80
7 10 14 18 22 26 29 34 36 38 40 43 48 53 59 65 70 75 80 88 83 80 84 76 70 77 74 78 81 80 81 81
4 8 12 18 21 23 29 31 33 36 38 44 49 56 60 65 70 70 74 81 93 93 84 78 80 77 76 76 71 75 73 78
Wind_Direction_500mb
52 48 45 48 39 40 53 70 151 217 236 239 248 248 256 255 247 253 252 255 258 257 255 235 246 238 242 234 236 245 245 245
57 52 46 50 41 47 44 32 8 318 241 248 247 263 256 261 258 257 254 259 254 259 263 261 236 243 241 245 239 241 245 245
60 55 48 47 48 38 42 40 36 25 337 300 283 272 260 262 270 273 266 264 256 260 260 262 262 242 241 240 239 244 247 242
57 54 49 46 42 49 26 35 33 29 21 2 292 266 273 260 257 263 277 271 262 269 257 260 262 260 248 247 241 238 242 243
56 51 45 41 39 38 44 25 30 29 24 26 23 10 346 323 298 278 275 261 268 269 269 258 254 257 257 249 249 246 242 242
59 56 49 41 32 33 29 22 23 24 24 20 23 23 9 351 336 303 275 270 262 274 258 253 255 252 256 256 248 248 248 246
63 54 49 40 29 28 23 27 12 11 9 12 13 12 12 2 353 340 318 291 278 274 262 259 254 254 260 261 256 247 247 251
59 48 41 35 25 18 23 20 13 9 10 4 0 4 2 5 0 354 348 337 328 310 299 284 264 258 259 256 261 256 249 246
50 49 38 30 22 19 11 10 6 1 6 3 4 356 358 355 352 353 353 344 340 338 340 316 297 279 261 259 254 259 255 252
48 38 32 22 19 11 5 6 2 353 359 357 359 2 358 347 342 340 340 346 337 336 334 337 318 298 277 289 256 258 258 258
41 32 29 16 10 3 1 357 357 349 355 356 354 353 358 357 351 338 334 332 334 325 330 334 326 337 311 309 283 268 260 257
26 24 22 13 5 358 357 354 353 352 354 351 349 350 350 351 351 348 343 335 325 328 320 318 330 326 325 324 319 307 288 289
20 19 9 2 356 352 353 354 353 351 350 349 347 344 344 345 347 344 343 339 339 324 324 319 311 317 317 320 322 324 315 308
345 8 1 357 353 350 349 351 350 348 347 346 347 346 343 342 342 343 341 338 339 335 330 320 314 313 313 314 310 319 328 333
354 359 359 354 351 348 345 344 344 343 344 343 344 341 340 338 337 335 338 335 334 328 330 327 320 315 310 304 305 305 308 310
3 355 352 349 347 344 342 339 342 342 341 342 340 334 335 335 334 334 332 330 326 328 326 323 325 320 319 305 304 301 300 298
345 343 341 347 344 342 339 338 339 340 338 340 334 335 334 335 333 331 328 326 326 326 325 320 323 322 319 319 303 306 302 294
337 341 344 343 340 339 336 337 337 337 341 335 336 334 332 332 331 329 327 325 324 323 321 322 318 312 316 309 314 307 302 302
339 345 340 336 336 332 334 337 339 340 337 336 336 335 335 334 331 331 329 323 320 321 322 322 318 317 319 321 324 316 309 301
Wind_Speed_850mb
48 49 55 59 48 34 21 12 7 9 12 14 31 40 46 48 49 48 51 55 62 63 63 62 59 61 64 67 61 60 61 62
47 50 52 62 62 58 57 36 23 7 14 26 37 28 36 45 52 53 54 53 61 64 68 65 69 68 68 67 68 70 69 62
42 48 53 57 64 62 67 62 58 39 24 26 25 29 39 41 45 50 62 57 58 60 75 79 73 79 77 72 69 71 73 69
37 43 45 46 49 53 55 58 62 62 51 40 33 37 32 35 47 52 44 61 66 62 72 79 81 74 79 84 86 83 78 74
31 35 41 42 43 45 41 45 51 54 56 57 59 50 39 41 46 45 41 43 44 67 62 78 87 82 82 83 82 91 92 92
29 32 34 36 38 40 45 44 45 51 53 50 46 49 54 55 55 53 61 49 42 37 52 72 85 90 91 88 83 85 90 94
27 29 31 33 35 40 42 40 44 47 46 51 52 48 48 53 62 59 50 62 55 48 55 57 62 76 89 90 92 92 92 93
24 26 29 32 35 40 39 42 43 49 50 47 46 51 51 49 50 57 67 65 55 57 60 59 52 57 67 90 88 95 98 98
22 25 27 29 32 38 42 45 46 48 49 51 50 46 48 54 52 47 46 58 65 67 69 59 60 60 55 72 87 93 98 103
16 20 23 26 30 36 41 40 42 49 54 51 53 55 55 52 51 54 53 45 53 64 61 68 65 61 77 55 77 81 92 97
12 15 19 22 28 32 36 39 40 42 50 51 58 56 56 56 58 55 57 59 48 56 56 59 63 68 55 51 68 77 88 83
11 14 18 21 26 31 35 36 39 42 45 47 51 55 62 64 62 62 64 61 65 59 57 58 58 62 68 68 66 59 52 58
8 11 16 22 27 31 34 35 36 39 40 45 50 53 61 64 66 70 70 66 66 63 68 65 62 60 63 67 65 65 62 72
6 11 17 22 27 31 32 33 36 40 43 45 47 53 60 66 71 71 74 78 76 68 68 71 74 73 67 74 84 76 67 68
5 11 16 22 25 28 30 33 37 40 41 46 48 55 59 61 65 74 76 77 80 82 81 73 75 72 69 70 74 85 76 75
6 12 18 21 24 27 30 32 37 40 42 46 47 56 58 64 70 74 74 76 82 81 79 77 84 73 69 66 79 88 82 88
6 12 16 19 23 26 28 34 37 40 42 45 49 54 59 63 68 74 78 79 76 78 72 77 81 74 75 75 76 83 91 80
7 10 14 18 22 26 29 34 36 38 40 43 48 53 59 65 70 75 80 88 83 80 84 76 70 77 74 78 81 80 81 81
4 8 12 18 21 23 29 31 33 36 38 44 49 56 60 65 70 70 74 81 93 93 84 78 80 77 76 76 71 75 73 78
Wind_Direction_850mb
52 48 45 48 39 40 53 70 151 217 236 239 248 248 256 255 247 253 252 255 258 257 255 235 246 238 242 234 236 245 245 245
57 52 46 50 41 47 44 32 8 318 241 248 247 263 256 261 258 257 254 259 254 259 263 261 236 243 241 245 239 241 245 245
60 55 48 47 48 38 42 40 36 25 337 300 283 272 260 262 270 273 266 264 256 260 260 262 262 242 241 240 239 244 247 242
57 54 49 46 42 49 26 35 33 29 21 2 292 266 273 260 257 263 277 271 262 269 257 260 262 260 248 247 241 238 242 243
56 51 45 41 39 38 44 25 30 29 24 26 23 10 346 323 298 278 275 261 268 269 269 258 254 257 257 249 249 246 242 242
59 56 49 41 32 33 29 22 23 24 24 20 23 23 9 351 336 303 275 270 262 274 258 253 255 252 256 256 248 248 248 246
63 54 49 40 29 28 23 27 12 11 9 12 13 12 12 2 353 340 318 291 278 274 262 259 254 254 260 261 256 247 247 251
59 48 41 35 25 18 23 20 13 9 10 4 0 4 2 5 0 354 348 337 328 310 299 284 264 258 259 256 261 256 249 246
50 49 38 30 22 19 11 10 6 1 6 3 4 356 358 355 352 353 353 344 340 338 340 316 297 279 261 259 254 259 255 252
48 38 32 22 19 11 5 6 2 353 359 357 359 2 358 347 342 340 340 346 337 336 334 337 318 298 277 289 256 258 258 258
41 32 29 16 10 3 1 357 357 349 355 356 354 353 358 357 351 338 334 332 334 325 330 334 326 337 311 309 283 268 260 257
26 24 22 13 5 358 357 354 353 352 354 351 349 350 350 351 351 348 343 335 325 328 320 318 330 326 325 324 319 307 288 289
20 19 9 2 356 352 353 354 353 351 350 349 347 344 344 345 347 344 343 339 339 324 324 319 311 317 317 320 322 324 315 308
345 8 1 357 353 350 349 351 350 348 347 346 347 346 343 342 342 343 341 338 339 335 330 320 314 313 313 314 310 319 328 333
354 359 359 354 351 348 345 344 344 343 344 343 344 341 340 338 337 335 338 335 334 328 330 327 320 315 310 304 305 305 308 310
3 355 352 349 347 344 342 339 342 342 341 342 340 334 335 335 334 334 332 330 326 328 326 323 325 320 319 305 304 301 300 298
345 343 341 347 344 342 339 338 339 340 338 340 334 335 334 335 333 331 328 326 326 326 325 320 323 322 319 319 303 306 302 294
337 341 344 343 340 339 336 337 337 337 341 335 336 334 332 332 331 329 327 325 324 323 321 322 318 312 316 309 314 307 302 302
339 345 340 336 336 332 334 337 339 340 337 336 336 335 335 334 331 331 329 323 320 321 322 322 318 317 319 321 324 316 309 301